STARLINK-3900, 52461

Orbit data source: Space-Track

STARLINK-3900, 52461 is a payload satellite owned by SpaceX/Seattle (US) in LEO that was launched on Fri, 06 May 2022 UTC via an FALCON 9 launch vehicle from the Air Force Eastern Test Range (AFETR). Payload-class satellites include a variety of spacecraft equipped with specific instruments for various scientific and technological missions. These include communications satellites like Starlink; space stations such as the ISS; scientific satellites like the Hubble; Earth observation satellites from companies like Planet Labs, Umbra, and HawkEye 360; GPS; miniature CubeSats for education and research; and military/defense satellites.

Loading next visibility...
Identifier
52461, 2022-049L
Orbit
LEO
Country
Flag of USUS
Related business
Manufacturer
SpaceX/Seattle
Mission
Operational Commercial Communications
Bus & Motor
STARLINK, Unknown motor
Mass
297 kg wet, ~220 kg dry
Launch date (UTC)
2022-05-06 (4 years ago)
Launch vehicle
FALCON 9
Launch site
Air Force Eastern Test Range (AFETR)
Object type
Payload
Rocket body
Debris
Shape & HBR
Box + 1 Pan, 10.1 m
Radar Cross Section
13.562 m², Large (>1 m²)

Expand to show TLE details & history
Last TLE update: 20 hours ago

TLE from 20 hours ago
0 STARLINK-3900
1 52461U 22049L   26235.64862286  .00005220  00000-0  16990-3 0  9992
2 52461  53.1621  14.0468 0001590  89.7179 270.4006 15.33558537237665
Epoch: 2026-08-23T15:34Z
TLE epoch observation values (Epoch: 2026-08-23T15:34:01.015Z)
Latitude
0.00004°
Longitude
168.60094°
Altitude
466.099 km
Speed
7.635 km/s
True Right ascension
00h 56m 11s
True Declination
0° 00' 00"
Sunlit
Object was in full shadow at epoch
Visualization orbit readout
Latitude
Unknown
Longitude
Unknown
Altitude
Unknown
Speed
Unknown
Apparent Right ascension
Unknown
Apparent Declination
Unknown
Sunlit
N/A
Visualization observer readout
Local Sidereal Time
02:30:37
Azimuth
Unknown
Elevation
Unknown
Doppler factor
Unknown
Orbital elements
Apogee altitude
466.55 km
Perigee altitude
464.374 km
Semi-major axis
6,843.599 km
Eccentricity
0.00016
Inclination
53.1621°
RAAN
14.0468°
Arg. of periapsis
89.7179°
True anomaly
270.38238°
Mean anomaly
270.4006°
Eccentric anomaly
270.39149°
Mean motion
3.83368 °/min
Orbital period
93.9 mins
BSTAR
0.0001699
Loading maneuver chart data...
Computing Atmospheric mass density...
Loading historical data...
Loading historical data...
Loading historical data...
Loading historical data...
Loading historical data...
Loading historical data...
Loading historical data...

Documentation

Showing up to 5 results
|